"Pseudo-MPEC" for P11JT4W

Created 2023 Sep 19 16:22:28 UT using Find_Orb

Click here for an explanation of pseudo-MPECs

 
 Astrometry: 
     P11JT4W  C2023 09 15.23738 22 17 26.31 +26 08 00.3    ~9IJM 21.3 GVNEOCPG96
     P11JT4W  C2023 09 15.24255 22 17 25.96 +26 07 58.2    ~9IJM 21.8 GVNEOCPG96
     P11JT4W* C2023 09 18_qVyq(1LHKq3pH-%e:!oAstrometry;qB)eqP%B-X9caJ5/O`wE.F51
     P11JT4W  C2023 09 18Q-M0rgds6%kX/0)_5%Fnc/Bxrr^IqG$tdQaOJwTo/redacted;=lF51
     P11JT4W  C2023 09 18Woq#=5g1?y]XU%W3SAdnpiE%^.By4qW+`x2q=eUOgd.Dw;f/\+TaF51
     P11JT4W  C2023 09 18Cb^b]P3n[MlGEd2T9xo=de'!p5b:xVn^`\RA/yC.cUV/ZX.*PLoWF51
     P11JT4W  C2023 09 18M@lj4DjD9(*u5K^4HmwX/SADf)(VQM]K?M_r)1T3`i9D#akTsUb;F51
     P11JT4W  C2023 09 18SND[DTfq88j?w.7[?lH%[a$9#oGPJ/k#]j8click[D%R\qwn+m)%F51
     P11JT4W KC2023 09 19_R*umbhpX5G\hereEl:\\R'1J=\Gs+-g42Lfp!ZYi*7%+M$xg:4tH21
     P11JT4W KC2023 09 192;+]for3h^,sksaW(N!explanationbakFxJR%(*mBgU4LlGnPSAH21

Station data:
(F51) Pan-STARRS 1, Haleakala  (N20.707234 W156.255910)  US/Hawaii.
   Observers J. Bulger, T. Lowe, A. Schultz, M. Willman. Measurers K.
   Chambers, S. Chastel, T. de Boer, L. Denneau, J. Fairlamb, H. Flewelling,
   M. Huber, C.-C. Lin, E. Magnier, Y. Ramanjooloo, R. Wainscoat, R. Weryk.
   1.8-m Ritchey-Chrétien + CCD.
(G96) Mt. Lemmon Survey  (N32.442751 W110.788720)  US/Arizona.  Observers T.
   A. Pruyne, B. M. Africano, E. J. Christensen, G. A. Farneth, D. C. Fuls,
   A. R. Gibbs, A. D. Grauer, H. Gröller, J. A. Johnson, R. A. Kowalski, S.
   M. Larson, G. J. Leonard, D. Rankin, R. L. Seaman, F. C. Shelly, K. W.
   Wierzchoś. 1.5-m reflector + 10K CCD.
(H21) Astronomical Research Observatory, Westfield  (N39.483054 W87.968270)
   US/Illinois.  Observer R. Holmes. Measurers S. Foglia, L. Buzzi, T.
   Linder, R. Holmes. 0.76-m f/3.0 astrograph + CCD0.81-m f/4.0 astrograph +
   CCD0.61-m f/4.5 astrograph + CCD0.40-m f/5.32 astrograph + CCD.

Orbital elements:  P11JT4W
   Perihelion 2024 Oct 13.65065 +/- 18.7 TT = 15:36:55 (JD 2460597.15065)
Epoch 2023 Sep 19.0 TT = JDT 2460206.5   Earth MOID: 0.8350      AutoNEOCP
M 219.15638622 +/- 6                (J2000 ecliptic)
n   0.36053598 +/- 0.00113          Peri.  229.06866 +/- 5.3
a   1.95510599 +/- 0.0041           Node   268.76852 +/- 0.51
e   0.0856564 +/- 0.00532           Incl.   18.62798 +/- 0.08
P   2.73/998.49d           H 18.91  G  0.15   U  8.3
q 1.78763847 +/- 0.00676    Q 2.12257351 +/- 0.0148
From 10 observations 2023 Sept. 15-19; mean residual 0".10
Residuals in arcseconds: 
230915 G96  .05-  .02-    230918 F51  .03-  .24+    230919 H21  .06+  .26+    
230915 G96  .05+  .01+    230918 F51  .08+  .04-    230919 H21  .07-  .05-    
230918 F51  .06-  .00     230918 F51  .04+  .17-    
230918 F51  .04+  .03-    230918 F51  .06-  .06-    

Ephemerides (geocentric):
Date (UTC) HH   RA             Dec           delta  r     elong  mag " sig PA
---- --------  ------------   ------------  ------ ------ -----  --- --------
2023 09 19 16  22 12 46.606   +25 33 57.03  1.1871 2.0898 144.8 21.8 .460 140
2023 09 19 17  22 12 44.115   +25 33 35.89  1.1872 2.0897 144.8 21.8 .481 140
2023 09 19 18  22 12 41.628   +25 33 14.72  1.1873 2.0897 144.8 21.8 .502 140
2023 09 19 19  22 12 39.143   +25 32 53.51  1.1873 2.0897 144.7 21.8 .523 140
2023 09 19 20  22 12 36.661   +25 32 32.27  1.1874 2.0897 144.7 21.8 .545 140
2023 09 19 21  22 12 34.182   +25 32 11.00  1.1875 2.0896 144.7 21.8 .567 140
2023 09 19 22  22 12 31.706   +25 31 49.70  1.1875 2.0896 144.7 21.8 .589 140
2023 09 19 23  22 12 29.233   +25 31 28.36  1.1876 2.0896 144.7 21.8 .612 140
2023 09 20 00  22 12 26.762   +25 31 06.98  1.1876 2.0896 144.7 21.8 .635 140
2023 09 20 01  22 12 24.295   +25 30 45.58  1.1877 2.0895 144.7 21.8 .658 140
2023 09 20 02  22 12 21.830   +25 30 24.14  1.1878 2.0895 144.6 21.8 .682 139
2023 09 20 03  22 12 19.368   +25 30 02.67  1.1878 2.0895 144.6 21.8 .706 139
2023 09 20 04  22 12 16.909   +25 29 41.17  1.1879 2.0895 144.6 21.8 .730 139
2023 09 20 05  22 12 14.453   +25 29 19.63  1.1880 2.0894 144.6 21.8 .755 139
2023 09 20 06  22 12 12.000   +25 28 58.06  1.1880 2.0894 144.6 21.8 .780 139
2023 09 20 07  22 12 09.550   +25 28 36.46  1.1881 2.0894 144.6 21.8 .805 139
2023 09 20 08  22 12 07.103   +25 28 14.83  1.1882 2.0894 144.6 21.8 .830 139
2023 09 20 09  22 12 04.658   +25 27 53.16  1.1882 2.0893 144.6 21.8 .856 139
2023 09 20 10  22 12 02.217   +25 27 31.46  1.1883 2.0893 144.5 21.8 .882 139
2023 09 20 11  22 11 59.778   +25 27 09.73  1.1884 2.0893 144.5 21.8 .909 139
2023 09 20 12  22 11 57.342   +25 26 47.97  1.1884 2.0893 144.5 21.8 .936 139
2023 09 20 13  22 11 54.910   +25 26 26.18  1.1885 2.0893 144.5 21.8 .963 139
2023 09 20 14  22 11 52.480   +25 26 04.35  1.1886 2.0892 144.5 21.8 0.99 139
2023 09 20 15  22 11 50.053   +25 25 42.49  1.1886 2.0892 144.5 21.8 1.02 139
2023 09 20 16  22 11 47.629   +25 25 20.60  1.1887 2.0892 144.5 21.8 1.05 139
2023 09 20 17  22 11 45.208   +25 24 58.68  1.1888 2.0892 144.4 21.8 1.07 139
2023 09 20 18  22 11 42.790   +25 24 36.72  1.1888 2.0891 144.4 21.8 1.10 139
2023 09 20 19  22 11 40.375   +25 24 14.73  1.1889 2.0891 144.4 21.8 1.13 139
2023 09 20 20  22 11 37.963   +25 23 52.72  1.1890 2.0891 144.4 21.8 1.16 139
2023 09 20 21  22 11 35.554   +25 23 30.67  1.1891 2.0891 144.4 21.8 1.19 139
2023 09 20 22  22 11 33.148   +25 23 08.58  1.1891 2.0890 144.4 21.8 1.22 139
2023 09 20 23  22 11 30.745   +25 22 46.47  1.1892 2.0890 144.4 21.8 1.25 139
2023 09 21 00  22 11 28.345   +25 22 24.33  1.1893 2.0890 144.3 21.8 1.28 139
2023 09 21 01  22 11 25.948   +25 22 02.15  1.1893 2.0890 144.3 21.8 1.31 139
2023 09 21 02  22 11 23.554   +25 21 39.94  1.1894 2.0889 144.3 21.8 1.34 139
2023 09 21 03  22 11 21.163   +25 21 17.71  1.1895 2.0889 144.3 21.8 1.38 139
2023 09 21 04  22 11 18.775   +25 20 55.44  1.1896 2.0889 144.3 21.8 1.41 139
2023 09 21 05  22 11 16.389   +25 20 33.13  1.1896 2.0889 144.3 21.8 1.44 139
2023 09 21 06  22 11 14.007   +25 20 10.80  1.1897 2.0888 144.3 21.8 1.47 139
2023 09 21 07  22 11 11.628   +25 19 48.44  1.1898 2.0888 144.2 21.8 1.51 139
2023 09 21 08  22 11 09.252   +25 19 26.05  1.1899 2.0888 144.2 21.8 1.54 138
2023 09 21 09  22 11 06.879   +25 19 03.62  1.1899 2.0888 144.2 21.8 1.57 138
2023 09 21 10  22 11 04.510   +25 18 41.17  1.1900 2.0887 144.2 21.8 1.61 138
2023 09 21 11  22 11 02.143   +25 18 18.68  1.1901 2.0887 144.2 21.8 1.64 138
2023 09 21 12  22 10 59.779   +25 17 56.16  1.1902 2.0887 144.2 21.8 1.67 138
2023 09 21 13  22 10 57.418   +25 17 33.62  1.1902 2.0887 144.2 21.8 1.71 138
2023 09 21 14  22 10 55.060   +25 17 11.04  1.1903 2.0886 144.1 21.8 1.74 138
2023 09 21 15  22 10 52.706   +25 16 48.43  1.1904 2.0886 144.1 21.8 1.78 138